Home > Time Zones > World Clock > Weather > Norway > Sola > Past weeks

Flag for Norway Weather past 2 weeks in Sola, Norway

Now
37 °F

Clear.


Feels Like: 37 °F
Forecast: 39 / 43 °F
Wind: 1 mph from Northeast

Location: Stavanger / Sola

Current Time: Jan 27, 2015 at 2:26:39 AM

Latest Report: Jan 27, 2015 at 1:00 AM


Visibility: 15 mi

Pressure: 29.91 "Hg

Humidity: 88%

Dew point: 33 °F

Location of SolaLocation

Historic Weather in Sola — Graph

°F

Sola temperature yesterday

Maximum temperature yesterday: 46 °F (at 3:00 AM)
Minimum temperature yesterday: 38 °F (at 11:00 PM)
Average temperature yesterday: 42 °F

Past Weeks' High & Low Weather Summary

 TemperatureHumidityPressure
High48 °F (Jan 12, 12:00 PM)98% (Jan 26, 3:00 AM)30.24 "Hg (Jan 26, 3:00 AM)
Low23 °F (Jan 22, 7:00 AM)48% (Jan 21, 3:00 PM)28.61 "Hg (Jan 16, 3:00 AM)
Average38 °F78%29.66 "Hg
* Reported Jan 12 1:00 AM — Jan 27 1:00 AM, Sola, Weather by CustomWeather, © 2014

Note: Actual official high and low records may vary slightly from our data, if they occured in-between our weather recording intervals... More about our weather records

Advertising

Sola weather history for previous 24 hours

 ConditionsComfort  
Time TempWeatherWind HumidityBarometerVisibility
1:00 AM
Jan 27
37 °FClear.1 mph88%29.91 "Hg15 mi
12:00 AM38 °FRain showers. Passing clouds.5 mph84%29.90 "Hg22 mi
11:00 PM
Jan 26
38 °FRain showers. Passing clouds.6 mph89%29.88 "Hg3 mi
9:00 PM38 °FPassing clouds.2 mph89%29.84 "Hg25 mi
8:00 PM40 °FRain showers. Passing clouds.5 mph89%29.82 "Hg19 mi
7:00 PM40 °FLight rain. Passing clouds.6 mph85%29.79 "Hg6 mi
6:00 PM41 °FPassing clouds.8 mph84%29.78 "Hg25 mi
5:00 PM41 °FRain showers. Passing clouds.8 mph87%29.74 "Hg7 mi
4:00 PM40 °FPartly sunny.1 mph92%29.74 "Hg10 mi
3:00 PM41 °FSunny.1 mph89%29.73 "Hg11 mi
2:00 PM41 °FRain showers. Partly sunny.2 mph87%29.72 "Hg15 mi
1:00 PM43 °FSprinkles. Overcast.1 mph83%29.73 "Hg8 mi
12:00 PM44 °FPartly sunny.6 mph70%29.75 "Hg16 mi
11:00 AM44 °FOvercast.5 mph84%29.75 "Hg7 mi
10:00 AM44 °FScattered clouds.3 mph86%29.75 "Hg6 mi
9:00 AM44 °FPartly sunny.3 mph91%29.75 "Hg4 mi
8:00 AM44 °FOvercast.2 mph91%29.76 "Hg4 mi
7:00 AM45 °FPassing clouds.3 mph93%29.77 "Hg5 mi
6:00 AM45 °FLight rain. Low clouds.6 mph97%29.78 "Hg3 mi
5:00 AM45 °FLight rain. Fog.2 mph98%29.79 "Hg3 mi
3:00 AM46 °FLight rain. Low clouds.6 mph98%29.81 "Hg4 mi
2:00 AM44 °FRain. Low clouds.6 mph97%29.82 "Hg3 mi
Weather by CustomWeather, © 2014

See weather overviewHow to use our weather pages